Hourly Weather Russkiy Shuy

Today, 19 April, Monday

Time Temperature Precipitation Wind Pressure Humidity
00:00 -1°C° 0 mm 5 mps 758 mmHg 71%
01:00 -3°C° 0 mm 6 mps 758 mmHg 72%
02:00 -3°C° 0 mm 6 mps 759 mmHg 72%
03:00 -4°C° 0 mm 6 mps 759 mmHg 73%
04:00 -4°C° 0 mm 6 mps 759 mmHg 70%
05:00 -4°C° 0 mm 6 mps 759 mmHg 68%
06:00 -4°C° 0 mm 6 mps 760 mmHg 65%
07:00 -2°C° 0 mm 6 mps 760 mmHg 57%
08:00 -1°C° 0 mm 7 mps 760 mmHg 50%
09:00 0°C° 0 mm 8 mps 760 mmHg 39%
10:00 +2°C° 0 mm 7 mps 760 mmHg 37%
11:00 +3°C° 0 mm 7 mps 760 mmHg 34%
12:00 +4°C° 0 mm 7 mps 760 mmHg 31%
13:00 +4°C° 0 mm 7 mps 760 mmHg 30%
14:00 +4°C° 0 mm 7 mps 760 mmHg 30%
15:00 +4°C° 0 mm 7 mps 760 mmHg 29%
16:00 +4°C° 0 mm 7 mps 760 mmHg 32%
17:00 +3°C° 0 mm 6 mps 760 mmHg 35%
18:00 +3°C° 0 mm 6 mps 760 mmHg 38%
19:00 +1°C° 0 mm 5 mps 760 mmHg 43%
20:00 0°C° 0 mm 5 mps 760 mmHg 47%
21:00 -1°C° 0 mm 5 mps 761 mmHg 51%
22:00 -1°C° 0 mm 4 mps 761 mmHg 53%
23:00 -2°C° 0 mm 4 mps 761 mmHg 54%

Tomorrow, 20 April, Tuesday

Time Temperature Precipitation Wind Pressure Humidity
00:00 -2°C° 0 mm 4 mps 761 mmHg 55%
01:00 -3°C° 0 mm 4 mps 761 mmHg 55%
02:00 -3°C° 0 mm 4 mps 761 mmHg 55%
03:00 -3°C° 0 mm 4 mps 761 mmHg 54%
04:00 -3°C° 0 mm 4 mps 761 mmHg 53%
05:00 -2°C° 0 mm 5 mps 761 mmHg 51%
06:00 -2°C° 0 mm 5 mps 761 mmHg 50%
07:00 0°C° 0 mm 5 mps 761 mmHg 46%
08:00 +2°C° 0 mm 5 mps 761 mmHg 42%
09:00 +3°C° 0 mm 6 mps 761 mmHg 38%
10:00 +4°C° 0 mm 6 mps 761 mmHg 35%
11:00 +5°C° 0 mm 6 mps 761 mmHg 33%
12:00 +7°C° 0 mm 6 mps 761 mmHg 30%
13:00 +7°C° 0 mm 6 mps 761 mmHg 30%
14:00 +8°C° 0 mm 6 mps 760 mmHg 29%
15:00 +8°C° 0 mm 6 mps 760 mmHg 29%
16:00 +7°C° 0 mm 6 mps 759 mmHg 33%
17:00 +6°C° 0 mm 5 mps 759 mmHg 36%
18:00 +6°C° 0 mm 5 mps 758 mmHg 40%
19:00 +4°C° 0 mm 4 mps 758 mmHg 44%
20:00 +3°C° 0 mm 4 mps 759 mmHg 49%
21:00 +1°C° 0 mm 4 mps 759 mmHg 53%
22:00 0°C° 0 mm 4 mps 758 mmHg 53%
23:00 0°C° 0 mm 5 mps 758 mmHg 53%

Day after tomorrow, 21 April, Wednesday

Time Temperature Precipitation Wind Pressure Humidity
00:00 -1°C° 0 mm 6 mps 757 mmHg 53%
01:00 -1°C° 0 mm 6 mps 757 mmHg 53%
02:00 -1°C° 0 mm 6 mps 757 mmHg 54%
03:00 -1°C° 0 mm 6 mps 756 mmHg 54%
04:00 -1°C° 0 mm 7 mps 756 mmHg 53%
05:00 -1°C° 0 mm 8 mps 755 mmHg 51%
06:00 0°C° 0 mm 8 mps 754 mmHg 50%
07:00 0°C° 0 mm 9 mps 754 mmHg 48%
08:00 +1°C° 0 mm 9 mps 754 mmHg 46%
09:00 +2°C° 0 mm 9 mps 754 mmHg 44%
10:00 +1°C° 0.3 mm 9 mps 753 mmHg 53%
11:00 +1°C° 0.3 mm 10 mps 753 mmHg 62%
12:00 0°C° 0.3 mm 10 mps 753 mmHg 71%
13:00 0°C° 1 mm 10 mps 753 mmHg 78%
14:00 -2°C° 1 mm 10 mps 753 mmHg 85%
15:00 -3°C° 1 mm 10 mps 752 mmHg 92%
16:00 -1°C° 0.1 mm 9 mps 752 mmHg 91%
17:00 -1°C° 0.1 mm 9 mps 752 mmHg 90%
18:00 -1°C° 0.1 mm 9 mps 752 mmHg 90%
19:00 -1°C° 0 mm 8 mps 752 mmHg 91%
20:00 -1°C° 0 mm 8 mps 752 mmHg 92%
21:00 -1°C° 0 mm 8 mps 752 mmHg 94%
22:00 -1°C° 0 mm 7 mps 752 mmHg 94%
23:00 -1°C° 0 mm 7 mps 752 mmHg 95%

22 April, Thursday

Time Temperature Precipitation Wind Pressure Humidity
00:00 -1°C° 0 mm 7 mps 752 mmHg 96%
01:00 -1°C° 0.1 mm 6 mps 752 mmHg 96%
02:00 -1°C° 0.1 mm 6 mps 752 mmHg 96%
03:00 -1°C° 0.1 mm 6 mps 752 mmHg 96%
04:00 -1°C° 0.4 mm 6 mps 752 mmHg 96%
05:00 0°C° 0.4 mm 5 mps 752 mmHg 96%
06:00 0°C° 0.4 mm 5 mps 752 mmHg 96%
07:00 +1°C° 0 mm 5 mps 753 mmHg 95%
08:00 +1°C° 0 mm 5 mps 753 mmHg 95%
09:00 +2°C° 0 mm 5 mps 753 mmHg 95%
10:00 +3°C° 0 mm 5 mps 753 mmHg 91%
11:00 +5°C° 0 mm 5 mps 753 mmHg 88%
12:00 +6°C° 0 mm 5 mps 753 mmHg 84%
13:00 +6°C° 0 mm 5 mps 753 mmHg 85%
14:00 +7°C° 0 mm 5 mps 753 mmHg 86%
15:00 +7°C° 0 mm 6 mps 753 mmHg 87%
16:00 +7°C° 0 mm 5 mps 753 mmHg 88%
17:00 +6°C° 0 mm 5 mps 753 mmHg 89%
18:00 +6°C° 0 mm 5 mps 754 mmHg 90%
19:00 +6°C° 0 mm 5 mps 754 mmHg 91%
20:00 +5°C° 0 mm 5 mps 754 mmHg 92%
21:00 +5°C° 0 mm 5 mps 754 mmHg 94%
22:00 +5°C° 0 mm 5 mps 754 mmHg 95%
23:00 +3°C° 0 mm 5 mps 754 mmHg 95%

23 April, Friday

Time Temperature Precipitation Wind Pressure Humidity
00:00 +3°C° 0 mm 5 mps 754 mmHg 96%
01:00 +3°C° 0 mm 5 mps 754 mmHg 96%
02:00 +4°C° 0 mm 4 mps 754 mmHg 95%
03:00 +3°C° 0 mm 4 mps 754 mmHg 95%
04:00 +4°C° 0 mm 4 mps 754 mmHg 94%
05:00 +4°C° 0 mm 3 mps 755 mmHg 93%
06:00 +5°C° 0 mm 3 mps 755 mmHg 92%
07:00 +6°C° 0 mm 4 mps 755 mmHg 85%
08:00 +8°C° 0 mm 4 mps 755 mmHg 78%
09:00 +10°C° 0 mm 4 mps 755 mmHg 71%
10:00 +12°C° 0.1 mm 4 mps 755 mmHg 66%
11:00 +13°C° 0.1 mm 4 mps 755 mmHg 61%
12:00 +14°C° 0.1 mm 4 mps 755 mmHg 56%
13:00 +14°C° 0.4 mm 4 mps 754 mmHg 55%
14:00 +14°C° 0.4 mm 4 mps 754 mmHg 54%
15:00 +14°C° 0.4 mm 4 mps 754 mmHg 53%
16:00 +14°C° 0.2 mm 4 mps 754 mmHg 58%
17:00 +13°C° 0.2 mm 4 mps 754 mmHg 63%
18:00 +12°C° 0.2 mm 4 mps 754 mmHg 68%
19:00 +10°C° 0 mm 4 mps 754 mmHg 74%
20:00 +8°C° 0 mm 4 mps 754 mmHg 80%
21:00 +6°C° 0 mm 4 mps 754 mmHg 87%
22:00 +6°C° 0 mm 4 mps 754 mmHg 89%
23:00 +5°C° 0 mm 3 mps 754 mmHg 91%

24 April, Saturday

Time Temperature Precipitation Wind Pressure Humidity
00:00 +4°C° 0 mm 3 mps 754 mmHg 94%
01:00 +3°C° 0 mm 3 mps 754 mmHg 94%
02:00 +3°C° 0 mm 3 mps 754 mmHg 95%
03:00 +2°C° 0 mm 3 mps 754 mmHg 95%
04:00 +3°C° 0 mm 3 mps 753 mmHg 92%
05:00 +3°C° 0 mm 3 mps 753 mmHg 89%
06:00 +3°C° 0 mm 3 mps 753 mmHg 85%
07:00 +4°C° 0 mm 3 mps 753 mmHg 81%
08:00 +5°C° 0 mm 3 mps 753 mmHg 76%
09:00 +6°C° 0 mm 4 mps 753 mmHg 72%
10:00 +8°C° 0 mm 3 mps 752 mmHg 69%
11:00 +9°C° 0 mm 3 mps 752 mmHg 66%
12:00 +10°C° 0 mm 3 mps 752 mmHg 63%
13:00 +10°C° 0 mm 2 mps 752 mmHg 63%
14:00 +10°C° 0 mm 2 mps 751 mmHg 62%
15:00 +10°C° 0 mm 2 mps 751 mmHg 62%
16:00 +9°C° 0 mm 2 mps 751 mmHg 64%
17:00 +9°C° 0 mm 2 mps 751 mmHg 66%
18:00 +9°C° 0 mm 2 mps 751 mmHg 67%
19:00 +8°C° 0 mm 2 mps 751 mmHg 73%
20:00 +8°C° 0 mm 2 mps 751 mmHg 78%
21:00 +7°C° 0 mm 2 mps 751 mmHg 84%
22:00 +7°C° 0 mm 2 mps 751 mmHg 86%
23:00 +6°C° 0 mm 2 mps 751 mmHg 88%
Show more